Weather History for Clinton, IA

Change the Weather History Date:

Friday, April 12, 2013

  Actual Average Record
Temperature  
Mean Temperature 37 °F -  
Max Temperature 39 °F 61 °F 82 °F (1971)
Min Temperature 35 °F 38 °F 22 °F (1957)
Degree Days  
Heating Degree Days 28    
Moisture  
Dew Point 30 °F    
Average Humidity 77    
Maximum Humidity 93    
Minimum Humidity 65    
Precipitation  
Precipitation 0.01 in - - ()
Sea Level Pressure  
Sea Level Pressure 29.73 in    
Wind  
Wind Speed 14 mph (West)    
Max Wind Speed 25 mph    
Max Gust Speed 31 mph    
Visibility 10 miles    
Events      
Averages and records for this station are not official NWS values.
T = Trace of Precipitation, MM = Missing Value Source: NWS Daily Summary

Daily Weather History Graph

Daily Weather History Graph

Search for Another Location

Airport:

Trip Planner

Search our weather history database for the weather conditions in past years. The results will help you decide how hot, cold, wet, or windy it might be!

Date:

Astronomy

Apr. 12, 2013 Rise Set
Actual Time 6:25 AM CDT 7:39 PM CDT
Civil Twilight 5:56 AM CDT 8:08 PM CDT
Nautical Twilight 5:22 AM CDT 8:42 PM CDT
Astronomical Twilight 4:46 AM CDT 9:18 PM CDT
Moon 7:33 AM CDT (4/12) 10:12 PM CDT (4/12)
Length of Visible Light 14h 11m
Length of Day
13h 13m
Waxing Crescent, 5% of the Moon is Illuminated
Apr 12
Waxing Crescent
Apr 18
First Quarter
Apr 25
Full
May 2
Last Quarter
May 9
New

Hourly Weather History & Observations

Time (CDT) Temp. Windchill Dew Point Humidity Pressure Visibility Wind Dir Wind Speed Gust Speed Precip Events Conditions
12:15 AM 37.4 °F 30.3 °F 30.2 °F 75% 29.64 in 10.0 mi WSW 10.4 mph - N/A   Overcast
12:35 AM 35.6 °F 27.1 °F 30.2 °F 81% 29.64 in 10.0 mi WSW 12.7 mph - N/A   Overcast
12:55 AM 35.6 °F 27.1 °F 30.2 °F 81% 29.64 in 10.0 mi West 12.7 mph - N/A   Overcast
1:15 AM 35.6 °F 27.1 °F 28.4 °F 75% 29.64 in 10.0 mi West 12.7 mph - N/A   Mostly Cloudy
1:35 AM 35.6 °F 27.5 °F 30.2 °F 81% 29.64 in 10.0 mi WSW 11.5 mph - N/A   Overcast
1:55 AM 35.6 °F 26.6 °F 28.4 °F 75% 29.63 in 10.0 mi WSW 13.8 mph - N/A   Overcast
2:15 AM 35.6 °F 28.6 °F 30.2 °F 81% 29.63 in 10.0 mi WSW 9.2 mph - N/A   Mostly Cloudy
2:35 AM 35.6 °F 27.1 °F 30.2 °F 81% 29.62 in 10.0 mi WSW 12.7 mph - N/A   Mostly Cloudy
2:55 AM 35.6 °F 27.1 °F 30.2 °F 81% 29.61 in 10.0 mi WSW 12.7 mph - N/A   Overcast
3:15 AM 35.6 °F 26.6 °F 30.2 °F 81% 29.61 in 10.0 mi WSW 13.8 mph - N/A   Mostly Cloudy
3:35 AM 35.6 °F 27.1 °F 30.2 °F 81% 29.61 in 10.0 mi WSW 12.7 mph - N/A   Overcast
3:55 AM 35.6 °F 27.1 °F 30.2 °F 81% 29.61 in 10.0 mi WSW 12.7 mph - N/A   Overcast
4:15 AM 35.6 °F 27.5 °F 30.2 °F 81% 29.60 in 10.0 mi WSW 11.5 mph - N/A   Overcast
4:35 AM 35.6 °F 26.6 °F 30.2 °F 81% 29.60 in 10.0 mi WSW 13.8 mph - N/A   Overcast
4:55 AM 35.6 °F 27.5 °F 30.2 °F 81% 29.60 in 10.0 mi WSW 11.5 mph - N/A   Overcast
5:15 AM 35.6 °F 28.0 °F 30.2 °F 81% 29.60 in 10.0 mi WSW 10.4 mph - N/A   Overcast
5:35 AM 35.6 °F 27.5 °F 30.2 °F 81% 29.60 in 10.0 mi WSW 11.5 mph - N/A   Overcast
5:55 AM 35.6 °F 27.5 °F 30.2 °F 81% 29.60 in 10.0 mi WSW 11.5 mph - N/A   Overcast
6:15 AM 35.6 °F 28.0 °F 30.2 °F 81% 29.60 in 10.0 mi WSW 10.4 mph - N/A   Overcast
6:35 AM 35.6 °F 28.0 °F 30.2 °F 81% 29.60 in 10.0 mi WSW 10.4 mph - N/A   Mostly Cloudy
7:15 AM 35.6 °F 28.6 °F 30.2 °F 81% 29.62 in 9.0 mi WSW 9.2 mph - N/A   Overcast
7:35 AM 35.6 °F 29.2 °F 32.0 °F 87% 29.62 in 9.0 mi WSW 8.1 mph - N/A   Overcast
7:55 AM 37.4 °F 30.8 °F 32.0 °F 81% 29.62 in 6.0 mi WSW 9.2 mph - N/A   Overcast
8:15 AM 37.4 °F 30.8 °F 33.8 °F 87% 29.63 in 7.0 mi WSW 9.2 mph - N/A   Overcast
8:35 AM 37.4 °F 30.3 °F 33.8 °F 87% 29.64 in 10.0 mi WSW 10.4 mph - N/A   Overcast
8:55 AM 37.4 °F 29.3 °F 33.8 °F 87% 29.64 in 10.0 mi WSW 12.7 mph - N/A   Overcast
9:15 AM 39.2 °F 31.6 °F 33.8 °F 81% 29.64 in 10.0 mi WSW 12.7 mph - N/A   Overcast
9:55 AM 39.2 °F 31.6 °F 33.8 °F 81% 29.65 in 9.0 mi West 12.7 mph - N/A   Overcast
10:15 AM 37.4 °F 29.3 °F 33.8 °F 87% 29.66 in 3.0 mi WSW 12.7 mph - N/A   Overcast
10:35 AM 37.4 °F 27.8 °F 35.6 °F 93% 29.67 in 1.5 mi West 17.3 mph - N/A   Overcast
10:55 AM 37.4 °F 27.8 °F 33.8 °F 87% 29.67 in 10.0 mi West 17.3 mph - N/A   Overcast
11:15 AM 39.2 °F 29.3 °F 33.8 °F 81% 29.68 in 10.0 mi West 20.7 mph - N/A   Overcast
11:35 AM 39.2 °F 30.2 °F 33.8 °F 81% 29.68 in 10.0 mi West 17.3 mph - N/A   Overcast
11:55 AM 39.2 °F 29.6 °F 33.8 °F 81% 29.69 in 10.0 mi West 19.6 mph - N/A   Overcast
12:15 PM 39.2 °F 29.0 °F 33.8 °F 81% 29.70 in 10.0 mi West 21.9 mph - N/A   Overcast
12:35 PM 39.2 °F 29.0 °F 33.8 °F 81% 29.71 in 10.0 mi West 21.9 mph - N/A   Overcast
12:55 PM 39.2 °F 28.7 °F 33.8 °F 81% 29.72 in 10.0 mi West 23.0 mph 28.8 mph N/A   Overcast
1:15 PM 39.2 °F 29.3 °F 30.2 °F 70% 29.73 in 10.0 mi West 20.7 mph - N/A   Overcast
1:35 PM 39.2 °F 28.5 °F 32.0 °F 75% 29.74 in 10.0 mi West 24.2 mph 28.8 mph N/A   Overcast
1:55 PM 37.4 °F 26.1 °F 30.2 °F 75% 29.75 in 10.0 mi WNW 24.2 mph - N/A   Overcast
2:15 PM 39.2 °F 29.0 °F 32.0 °F 75% 29.76 in 10.0 mi West 21.9 mph - N/A   Overcast
2:35 PM 39.2 °F 29.0 °F 30.2 °F 70% 29.77 in 10.0 mi West 21.9 mph 28.8 mph N/A   Overcast
2:55 PM 37.4 °F 26.4 °F 30.2 °F 75% 29.79 in 10.0 mi WNW 23.0 mph 31.1 mph N/A   Overcast
3:15 PM 37.4 °F 26.6 °F 28.4 °F 70% 29.79 in 10.0 mi WNW 21.9 mph - N/A   Overcast
3:35 PM 39.2 °F 28.7 °F 30.2 °F 70% 29.80 in 10.0 mi West 23.0 mph 26.5 mph N/A   Overcast
3:55 PM 39.2 °F 28.7 °F 28.4 °F 65% 29.80 in 10.0 mi WNW 23.0 mph 27.6 mph N/A   Overcast
4:15 PM 39.2 °F 28.3 °F 30.2 °F 70% 29.81 in 10.0 mi West 25.3 mph 28.8 mph N/A   Overcast
4:35 PM 39.2 °F 30.5 °F 28.4 °F 65% 29.82 in 10.0 mi West 16.1 mph 28.8 mph N/A   Overcast
4:55 PM 39.2 °F 29.3 °F 28.4 °F 65% 29.82 in 10.0 mi West 20.7 mph 27.6 mph N/A   Overcast
5:15 PM 39.2 °F 29.6 °F 28.4 °F 65% 29.83 in 10.0 mi West 19.6 mph - N/A   Overcast
5:35 PM 39.2 °F 30.2 °F 30.2 °F 70% 29.84 in 10.0 mi WNW 17.3 mph 23.0 mph N/A   Overcast
5:55 PM 39.2 °F 29.8 °F 28.4 °F 65% 29.84 in 10.0 mi WNW 18.4 mph 25.3 mph N/A   Overcast
6:15 PM 39.2 °F 30.5 °F 30.2 °F 70% 29.84 in 10.0 mi WNW 16.1 mph - N/A   Overcast
6:35 PM 39.2 °F 30.8 °F 30.2 °F 70% 29.84 in 10.0 mi West 15.0 mph - N/A   Overcast
6:55 PM 39.2 °F 30.2 °F 30.2 °F 70% 29.84 in 10.0 mi WNW 17.3 mph - N/A   Overcast
7:15 PM 37.4 °F 27.8 °F 28.4 °F 70% 29.85 in 10.0 mi WNW 17.3 mph 21.9 mph N/A   Overcast
7:35 PM 37.4 °F 28.2 °F 28.4 °F 70% 29.85 in 10.0 mi WNW 16.1 mph - N/A   Overcast
7:55 PM 37.4 °F 26.9 °F 28.4 °F 70% 29.86 in 10.0 mi WNW 20.7 mph - N/A   Overcast
8:15 PM 37.4 °F 28.5 °F 28.4 °F 70% 29.86 in 10.0 mi WNW 15.0 mph - N/A   Overcast
8:35 PM 37.4 °F 28.5 °F 28.4 °F 70% 29.87 in 10.0 mi West 15.0 mph - N/A   Overcast
8:55 PM 37.4 °F 27.8 °F 28.4 °F 70% 29.88 in 10.0 mi West 17.3 mph - N/A   Overcast
9:15 PM 37.4 °F 28.2 °F 28.4 °F 70% 29.89 in 10.0 mi West 16.1 mph - N/A   Overcast
9:35 PM 37.4 °F 29.3 °F 28.4 °F 70% 29.89 in 10.0 mi West 12.7 mph - N/A   Overcast
9:55 PM 35.6 °F 26.2 °F 28.4 °F 75% 29.90 in 10.0 mi West 15.0 mph - N/A   Overcast
10:15 PM 35.6 °F 25.9 °F 28.4 °F 75% 29.90 in 10.0 mi WNW 16.1 mph - N/A   Overcast
10:35 PM 35.6 °F 26.6 °F 28.4 °F 75% 29.91 in 10.0 mi WNW 13.8 mph - N/A   Overcast
10:55 PM 35.6 °F 26.6 °F 28.4 °F 75% 29.90 in 10.0 mi WNW 13.8 mph - N/A   Overcast
11:15 PM 35.6 °F 26.2 °F 28.4 °F 75% 29.90 in 10.0 mi WNW 15.0 mph - N/A   Overcast
11:35 PM 35.6 °F 26.6 °F 28.4 °F 75% 29.90 in 10.0 mi West 13.8 mph - N/A   Overcast
11:55 PM 35.6 °F 27.1 °F 28.4 °F 75% 29.91 in 10.0 mi West 12.7 mph - N/A   Overcast